When you browse on this site, cookies collect data to enhance your experience and personalize the content and advertising you see.
Visit our Privacy Policy to learn more. By continuing to use the site, you agree to this use of cookies and data.

Hourly Weather Fateevo

Today, 6 July, Monday

Time Temperature Precipitation Wind Pressure Humidity
00:00 +20°C° 0.1 mm 1 mps 741 mmHg 92%
01:00 +20°C° 0 mm 1 mps 741 mmHg 92%
02:00 +19°C° 0 mm 1 mps 741 mmHg 92%
03:00 +18°C° 0 mm 2 mps 741 mmHg 92%
04:00 +18°C° 0 mm 2 mps 741 mmHg 92%
05:00 +18°C° 0 mm 2 mps 741 mmHg 92%
06:00 +19°C° 0 mm 2 mps 741 mmHg 93%
07:00 +20°C° 0 mm 2 mps 742 mmHg 88%
08:00 +21°C° 0 mm 2 mps 742 mmHg 84%
09:00 +24°C° 0 mm 2 mps 742 mmHg 79%
10:00 +25°C° 0 mm 2 mps 742 mmHg 75%
11:00 +26°C° 0 mm 2 mps 742 mmHg 70%
12:00 +27°C° 0 mm 2 mps 742 mmHg 65%
13:00 +27°C° 0 mm 2 mps 742 mmHg 64%
14:00 +28°C° 0 mm 2 mps 741 mmHg 63%
15:00 +28°C° 0 mm 2 mps 741 mmHg 61%
16:00 +28°C° 0 mm 2 mps 741 mmHg 64%
17:00 +28°C° 0 mm 2 mps 741 mmHg 67%
18:00 +28°C° 0 mm 2 mps 740 mmHg 69%
19:00 +26°C° 0 mm 2 mps 740 mmHg 73%
20:00 +24°C° 0 mm 2 mps 741 mmHg 76%
21:00 +23°C° 0 mm 2 mps 741 mmHg 80%
22:00 +22°C° 0 mm 1 mps 741 mmHg 82%
23:00 +22°C° 0 mm 1 mps 741 mmHg 84%

Tomorrow, 7 July, Tuesday

Time Temperature Precipitation Wind Pressure Humidity
00:00 +21°C° 0 mm 1 mps 741 mmHg 86%
01:00 +21°C° 0 mm 1 mps 741 mmHg 87%
02:00 +21°C° 0 mm 1 mps 740 mmHg 88%
03:00 +19°C° 0 mm 2 mps 740 mmHg 89%
04:00 +20°C° 0 mm 2 mps 740 mmHg 89%
05:00 +20°C° 0 mm 2 mps 740 mmHg 89%
06:00 +20°C° 0 mm 2 mps 740 mmHg 89%
07:00 +23°C° 0 mm 2 mps 740 mmHg 86%
08:00 +25°C° 0 mm 3 mps 740 mmHg 82%
09:00 +26°C° 0 mm 3 mps 740 mmHg 79%
10:00 +27°C° 0.6 mm 3 mps 740 mmHg 75%
11:00 +28°C° 0.6 mm 3 mps 739 mmHg 72%
12:00 +29°C° 0.6 mm 3 mps 739 mmHg 68%
13:00 +30°C° 0.3 mm 3 mps 739 mmHg 66%
14:00 +30°C° 0.3 mm 3 mps 739 mmHg 65%
15:00 +31°C° 0.3 mm 3 mps 738 mmHg 63%
16:00 +30°C° 0.6 mm 3 mps 738 mmHg 68%
17:00 +30°C° 0.6 mm 3 mps 738 mmHg 73%
18:00 +29°C° 0.6 mm 3 mps 738 mmHg 78%
19:00 +28°C° 0.1 mm 3 mps 738 mmHg 80%
20:00 +27°C° 0.1 mm 3 mps 737 mmHg 82%
21:00 +25°C° 0.1 mm 3 mps 737 mmHg 84%
22:00 +25°C° 0 mm 3 mps 737 mmHg 84%
23:00 +24°C° 0 mm 3 mps 737 mmHg 83%

Day after tomorrow, 8 July, Wednesday

Time Temperature Precipitation Wind Pressure Humidity
00:00 +22°C° 0 mm 4 mps 737 mmHg 83%
01:00 +22°C° 0 mm 4 mps 736 mmHg 82%
02:00 +22°C° 0 mm 4 mps 736 mmHg 81%
03:00 +22°C° 0 mm 4 mps 736 mmHg 80%
04:00 +22°C° 0.1 mm 4 mps 736 mmHg 81%
05:00 +22°C° 0.1 mm 3 mps 736 mmHg 82%
06:00 +22°C° 0.1 mm 3 mps 736 mmHg 84%
07:00 +24°C° 0 mm 3 mps 736 mmHg 81%
08:00 +25°C° 0 mm 4 mps 736 mmHg 78%
09:00 +26°C° 0 mm 5 mps 736 mmHg 76%
10:00 +27°C° 0.4 mm 5 mps 736 mmHg 75%
11:00 +27°C° 0.4 mm 4 mps 736 mmHg 74%
12:00 +28°C° 0.4 mm 3 mps 737 mmHg 73%
13:00 +28°C° 0.5 mm 3 mps 737 mmHg 73%
14:00 +28°C° 0.5 mm 3 mps 737 mmHg 72%
15:00 +29°C° 0.5 mm 3 mps 737 mmHg 71%
16:00 +27°C° 1 mm 3 mps 737 mmHg 76%
17:00 +26°C° 1 mm 3 mps 738 mmHg 80%
18:00 +25°C° 1 mm 3 mps 738 mmHg 84%
19:00 +24°C° 0.2 mm 3 mps 738 mmHg 87%
20:00 +22°C° 0.2 mm 4 mps 738 mmHg 90%
21:00 +21°C° 0.2 mm 4 mps 738 mmHg 93%
22:00 +20°C° 0.8 mm 4 mps 738 mmHg 94%
23:00 +19°C° 0.8 mm 3 mps 738 mmHg 95%

9 July, Thursday

Time Temperature Precipitation Wind Pressure Humidity
00:00 +19°C° 0.8 mm 3 mps 737 mmHg 96%
01:00 +19°C° 2.4 mm 3 mps 737 mmHg 97%
02:00 +19°C° 2.4 mm 3 mps 737 mmHg 97%
03:00 +18°C° 2.4 mm 3 mps 737 mmHg 97%
04:00 +18°C° 0.9 mm 3 mps 737 mmHg 97%
05:00 +18°C° 0.9 mm 3 mps 737 mmHg 97%
06:00 +18°C° 0.9 mm 3 mps 737 mmHg 97%
07:00 +18°C° 0.3 mm 3 mps 737 mmHg 96%
08:00 +18°C° 0.3 mm 4 mps 737 mmHg 95%
09:00 +17°C° 0.3 mm 5 mps 737 mmHg 94%
10:00 +16°C° 2.8 mm 5 mps 737 mmHg 95%
11:00 +17°C° 2.8 mm 4 mps 738 mmHg 95%
12:00 +17°C° 2.8 mm 4 mps 738 mmHg 96%
13:00 +16°C° 5.1 mm 5 mps 738 mmHg 96%
14:00 +15°C° 5.1 mm 6 mps 737 mmHg 96%
15:00 +15°C° 5.1 mm 7 mps 737 mmHg 96%
16:00 +14°C° 1.6 mm 7 mps 737 mmHg 94%
17:00 +13°C° 1.6 mm 8 mps 737 mmHg 92%
18:00 +13°C° 1.6 mm 8 mps 737 mmHg 91%
19:00 +13°C° 3.3 mm 8 mps 737 mmHg 91%
20:00 +12°C° 3.3 mm 8 mps 737 mmHg 92%
21:00 +12°C° 3.3 mm 8 mps 737 mmHg 93%
22:00 +12°C° 2.8 mm 8 mps 737 mmHg 94%
23:00 +12°C° 2.8 mm 8 mps 737 mmHg 94%

10 July, Friday

Time Temperature Precipitation Wind Pressure Humidity
00:00 +12°C° 2.8 mm 8 mps 737 mmHg 95%
01:00 +12°C° 2.4 mm 8 mps 737 mmHg 94%
02:00 +12°C° 2.4 mm 8 mps 737 mmHg 93%
03:00 +12°C° 2.4 mm 9 mps 737 mmHg 92%
04:00 +12°C° 1.9 mm 8 mps 738 mmHg 92%
05:00 +12°C° 1.9 mm 8 mps 738 mmHg 92%
06:00 +11°C° 1.9 mm 7 mps 738 mmHg 92%
07:00 +12°C° 1.5 mm 8 mps 738 mmHg 91%
08:00 +12°C° 1.5 mm 8 mps 739 mmHg 89%
09:00 +12°C° 1.5 mm 8 mps 739 mmHg 88%
10:00 +13°C° 0.4 mm 8 mps 740 mmHg 84%
11:00 +15°C° 0.4 mm 8 mps 740 mmHg 81%
12:00 +16°C° 0.4 mm 8 mps 741 mmHg 77%
13:00 +17°C° 0.2 mm 7 mps 741 mmHg 76%
14:00 +17°C° 0.2 mm 7 mps 741 mmHg 75%
15:00 +19°C° 0.2 mm 6 mps 742 mmHg 74%
16:00 +19°C° 0.2 mm 6 mps 742 mmHg 74%
17:00 +19°C° 0.2 mm 5 mps 743 mmHg 75%
18:00 +19°C° 0.2 mm 4 mps 744 mmHg 75%
19:00 +18°C° 0 mm 4 mps 744 mmHg 76%
20:00 +15°C° 0 mm 4 mps 744 mmHg 76%
21:00 +14°C° 0 mm 4 mps 745 mmHg 77%
22:00 +13°C° 0 mm 4 mps 745 mmHg 78%
23:00 +13°C° 0 mm 4 mps 745 mmHg 79%

11 July, Saturday

Time Temperature Precipitation Wind Pressure Humidity
00:00 +12°C° 0 mm 4 mps 745 mmHg 80%
01:00 +11°C° 0 mm 4 mps 746 mmHg 82%
02:00 +11°C° 0 mm 3 mps 746 mmHg 85%
03:00 +10°C° 0 mm 3 mps 746 mmHg 87%
04:00 +11°C° 0 mm 3 mps 746 mmHg 87%
05:00 +11°C° 0 mm 3 mps 747 mmHg 87%
06:00 +11°C° 0 mm 3 mps 747 mmHg 87%
07:00 +13°C° 0 mm 3 mps 747 mmHg 83%
08:00 +16°C° 0 mm 3 mps 747 mmHg 79%
09:00 +18°C° 0 mm 3 mps 747 mmHg 75%
10:00 +19°C° 0 mm 3 mps 747 mmHg 71%
11:00 +20°C° 0 mm 3 mps 747 mmHg 67%
12:00 +21°C° 0 mm 4 mps 747 mmHg 63%
13:00 +21°C° 0 mm 4 mps 747 mmHg 62%
14:00 +21°C° 0 mm 3 mps 747 mmHg 61%
15:00 +22°C° 0 mm 3 mps 747 mmHg 61%
16:00 +22°C° 0 mm 3 mps 746 mmHg 64%
17:00 +22°C° 0 mm 3 mps 746 mmHg 67%
18:00 +21°C° 0 mm 2 mps 746 mmHg 70%
19:00 +20°C° 0 mm 2 mps 746 mmHg 74%
20:00 +18°C° 0 mm 2 mps 746 mmHg 77%
21:00 +17°C° 0 mm 2 mps 746 mmHg 81%
22:00 +16°C° 0 mm 2 mps 746 mmHg 82%
23:00 +16°C° 0 mm 2 mps 746 mmHg 84%
Show more